MXY127 KORF-KTPA

Flight info

Callsign MXY127
Flight time 1h 50m
Altitude 36000
Route NUTIY1 NUTIY COUPN BEETN JIMAR DEEEZ Q409 PUPYY BAAMF DADES2
Aircraft E190/M-SDE3GILORVW/S

Departure

Time 2026-05-07 23:58
Airport Norfolk International Airport (KORF)

Arrival

Time 2026-05-08 01:49
Airport Tampa International Airport (KTPA)
Time Latitude Longitude Altitude Speed Heading
2026-05-07 23:44 36.89607 -76.20187 27 ft 0 kts 358°
2026-05-07 23:47 36.89600 -76.20187 27 ft 2 kts 346°
2026-05-07 23:47 36.89587 -76.20178 27 ft 2 kts 315°
2026-05-07 23:47 36.89578 -76.20163 27 ft 2 kts 303°
2026-05-07 23:47 36.89573 -76.20155 27 ft 0 kts 305°
2026-05-07 23:53 36.89574 -76.20157 27 ft 0 kts 303°
2026-05-07 23:53 36.89561 -76.20178 27 ft 8 kts 206°
2026-05-07 23:53 36.89468 -76.20214 27 ft 14 kts 197°
2026-05-07 23:53 36.89388 -76.20280 27 ft 12 kts 216°
2026-05-07 23:54 36.89308 -76.20358 26 ft 15 kts 218°
2026-05-07 23:54 36.89210 -76.20447 26 ft 18 kts 214°
2026-05-07 23:54 36.89090 -76.20545 25 ft 21 kts 212°
2026-05-07 23:54 36.88953 -76.20658 25 ft 22 kts 217°
2026-05-07 23:55 36.88821 -76.20783 23 ft 23 kts 217°
2026-05-07 23:55 36.88708 -76.20889 22 ft 9 kts 206°
2026-05-07 23:55 36.88697 -76.20895 22 ft 2 kts 197°
2026-05-07 23:55 36.88630 -76.20867 22 ft 16 kts 126°
2026-05-07 23:56 36.88670 -76.20709 22 ft 9 kts 11°
2026-05-07 23:56 36.88724 -76.20693 23 ft 7 kts 27°
2026-05-07 23:56 36.88741 -76.20680 23 ft 0 kts 37°
2026-05-07 23:57 36.88804 -76.20622 24 ft 40 kts 38°
2026-05-07 23:57 36.89231 -76.20209 27 ft 106 kts 38°
2026-05-07 23:57 36.90001 -76.19463 25 ft 159 kts 38°
2026-05-07 23:58 36.90973 -76.18523 343 ft 178 kts 38°
2026-05-07 23:58 36.91993 -76.17526 965 ft 186 kts 38°
2026-05-07 23:58 36.92983 -76.16547 1669 ft 179 kts 38°
2026-05-07 23:58 36.94030 -76.15556 2253 ft 195 kts 25°
2026-05-07 23:59 36.95433 -76.15389 2783 ft 213 kts 343°
2026-05-07 23:59 36.96691 -76.16556 3420 ft 232 kts 302°
2026-05-07 23:59 36.97047 -76.18720 4078 ft 256 kts 266°
2026-05-07 23:59 36.96712 -76.20981 5047 ft 260 kts 262°
2026-05-08 00:00 36.96395 -76.23170 6120 ft 257 kts 262°
2026-05-08 00:00 36.96101 -76.25352 7216 ft 252 kts 262°
2026-05-08 00:00 36.95824 -76.27488 8148 ft 252 kts 262°
2026-05-08 00:00 36.95551 -76.29627 9021 ft 252 kts 262°
2026-05-08 00:01 36.95278 -76.31784 9849 ft 253 kts 261°
2026-05-08 00:01 36.95005 -76.33948 10593 ft 256 kts 261°
2026-05-08 00:01 36.94723 -76.36191 11211 ft 264 kts 261°
2026-05-08 00:01 36.94627 -76.38501 11769 ft 274 kts 269°
2026-05-08 00:02 36.94617 -76.40937 12336 ft 282 kts 269°
2026-05-08 00:02 36.94605 -76.43396 12994 ft 287 kts 268°
2026-05-08 00:02 36.94593 -76.45871 13727 ft 288 kts 268°
2026-05-08 00:02 36.94580 -76.48362 14496 ft 288 kts 268°
2026-05-08 00:03 36.94566 -76.50840 15246 ft 287 kts 268°
2026-05-08 00:03 36.94551 -76.53357 15948 ft 289 kts 268°
2026-05-08 00:03 36.94107 -76.55753 16559 ft 292 kts 245°
2026-05-08 00:03 36.93051 -76.57968 17179 ft 296 kts 242°
2026-05-08 00:04 36.91969 -76.60156 17784 ft 299 kts 242°
2026-05-08 00:04 36.90871 -76.62367 18423 ft 300 kts 243°
2026-05-08 00:04 36.89761 -76.64597 19039 ft 301 kts 243°
2026-05-08 00:04 36.88666 -76.66794 19672 ft 302 kts 242°
2026-05-08 00:05 36.87542 -76.69047 20346 ft 301 kts 243°
2026-05-08 00:05 36.86444 -76.71246 20969 ft 300 kts 243°
2026-05-08 00:05 36.85337 -76.73462 21539 ft 301 kts 243°
2026-05-08 00:05 36.84227 -76.75684 22087 ft 302 kts 243°
2026-05-08 00:06 36.83119 -76.77898 22670 ft 301 kts 243°
2026-05-08 00:06 36.82020 -76.80094 23230 ft 300 kts 243°
2026-05-08 00:06 36.80899 -76.82333 23732 ft 302 kts 243°
2026-05-08 00:06 36.79795 -76.84534 24185 ft 304 kts 244°
2026-05-08 00:07 36.78654 -76.86808 24684 ft 304 kts 244°
2026-05-08 00:07 36.77531 -76.89046 25209 ft 304 kts 244°
2026-05-08 00:07 36.76416 -76.91267 25721 ft 304 kts 244°
2026-05-08 00:07 36.75278 -76.93529 26128 ft 307 kts 245°
2026-05-08 00:08 36.74157 -76.95761 26562 ft 308 kts 245°
2026-05-08 00:08 36.73019 -76.98021 27031 ft 308 kts 246°
2026-05-08 00:08 36.71869 -77.00306 27464 ft 309 kts 245°
2026-05-08 00:08 36.70770 -77.02576 27924 ft 307 kts 248°
2026-05-08 00:09 36.69694 -77.04912 28337 ft 308 kts 247°
2026-05-08 00:09 36.68624 -77.07226 28750 ft 308 kts 248°
2026-05-08 00:09 36.67544 -77.09560 29154 ft 309 kts 248°
2026-05-08 00:09 36.66477 -77.11859 29525 ft 310 kts 248°
2026-05-08 00:10 36.65384 -77.14213 29902 ft 311 kts 248°
2026-05-08 00:10 36.64307 -77.16531 30241 ft 312 kts 248°
2026-05-08 00:10 36.63214 -77.18882 30542 ft 315 kts 248°
2026-05-08 00:10 36.62096 -77.21284 30832 ft 317 kts 248°
2026-05-08 00:11 36.60995 -77.23650 31124 ft 320 kts 248°
2026-05-08 00:11 36.59866 -77.26072 31464 ft 320 kts 248°
2026-05-08 00:11 36.58761 -77.28442 31813 ft 321 kts 248°
2026-05-08 00:11 36.57639 -77.30843 32197 ft 320 kts 248°
2026-05-08 00:12 36.56522 -77.33233 32602 ft 318 kts 248°
2026-05-08 00:12 36.55404 -77.35628 33029 ft 316 kts 248°
2026-05-08 00:12 36.54310 -77.37965 33373 ft 316 kts 248°
2026-05-08 00:12 36.53207 -77.40322 33739 ft 315 kts 248°
2026-05-08 00:13 36.52113 -77.42660 34109 ft 314 kts 248°
2026-05-08 00:13 36.51002 -77.45029 34442 ft 314 kts 248°
2026-05-08 00:13 36.49903 -77.47372 34784 ft 313 kts 248°
2026-05-08 00:13 36.48816 -77.49687 35139 ft 312 kts 248°
2026-05-08 00:14 36.47727 -77.52010 35457 ft 311 kts 248°
2026-05-08 00:14 36.46626 -77.54352 35765 ft 311 kts 248°
2026-05-08 00:14 36.45522 -77.56702 35900 ft 315 kts 248°
2026-05-08 00:14 36.44415 -77.59058 35913 ft 320 kts 248°
2026-05-08 00:15 36.42107 -77.63960 35914 ft 332 kts 247°
2026-05-08 00:15 36.39741 -77.68974 35935 ft 340 kts 247°
2026-05-08 00:16 36.37332 -77.74071 35935 ft 340 kts 247°
2026-05-08 00:16 36.34951 -77.79105 35934 ft 337 kts 247°
2026-05-08 00:17 36.32556 -77.84158 35932 ft 338 kts 248°
2026-05-08 00:17 36.29806 -77.88947 35941 ft 353 kts 234°
2026-05-08 00:18 36.27804 -77.90897 35938 ft 369 kts 226°
2026-05-08 00:18 36.25468 -77.92385 35942 ft 390 kts 217°
2026-05-08 00:18 36.22785 -77.93369 35940 ft 409 kts 207°
2026-05-08 00:18 36.19933 -77.93986 35934 ft 408 kts 208°
2026-05-08 00:19 36.14235 -77.95712 35925 ft 401 kts 211°
2026-05-08 00:19 36.08788 -77.97507 35926 ft 403 kts 211°
2026-05-08 00:20 36.03343 -77.99314 35924 ft 403 kts 211°
2026-05-08 00:20 35.97889 -78.01123 35929 ft 403 kts 211°
2026-05-08 00:21 35.92446 -78.02924 35921 ft 402 kts 211°
2026-05-08 00:21 35.87015 -78.04722 35920 ft 405 kts 211°
2026-05-08 00:22 35.81538 -78.06531 35920 ft 406 kts 211°
2026-05-08 00:22 35.76052 -78.08338 35932 ft 404 kts 211°
2026-05-08 00:23 35.70615 -78.10129 35930 ft 404 kts 210°
2026-05-08 00:23 35.65131 -78.11933 35931 ft 405 kts 210°
2026-05-08 00:24 35.59651 -78.13732 35927 ft 404 kts 210°
2026-05-08 00:24 35.54242 -78.15506 35925 ft 404 kts 210°
2026-05-08 00:25 35.48766 -78.17299 35922 ft 406 kts 210°
2026-05-08 00:25 35.43272 -78.19096 35919 ft 405 kts 210°
2026-05-08 00:26 35.37748 -78.20901 35921 ft 411 kts 210°
2026-05-08 00:26 35.32244 -78.22694 35921 ft 406 kts 210°
2026-05-08 00:27 35.27113 -78.25161 35927 ft 382 kts 225°
2026-05-08 00:27 35.22921 -78.28996 35914 ft 371 kts 229°
2026-05-08 00:28 35.18819 -78.32860 35907 ft 373 kts 229°
2026-05-08 00:28 35.14709 -78.36724 35904 ft 371 kts 230°
2026-05-08 00:29 35.10585 -78.40597 35902 ft 371 kts 229°
2026-05-08 00:29 35.06475 -78.44453 35897 ft 375 kts 229°
2026-05-08 00:30 35.02312 -78.48353 35892 ft 373 kts 230°
2026-05-08 00:30 34.98183 -78.52216 35891 ft 374 kts 230°
2026-05-08 00:31 34.94041 -78.56087 35888 ft 375 kts 229°
2026-05-08 00:31 34.89907 -78.59943 35885 ft 375 kts 229°
2026-05-08 00:32 34.85706 -78.63859 35880 ft 373 kts 229°
2026-05-08 00:32 34.81550 -78.67728 35902 ft 376 kts 228°
2026-05-08 00:33 34.77400 -78.71584 35906 ft 376 kts 229°
2026-05-08 00:33 34.73243 -78.75442 35906 ft 376 kts 229°
2026-05-08 00:34 34.69078 -78.79303 35909 ft 374 kts 228°
2026-05-08 00:34 34.64932 -78.83144 35902 ft 376 kts 229°
2026-05-08 00:35 34.60755 -78.87005 35898 ft 376 kts 228°
2026-05-08 00:35 34.56606 -78.90836 35896 ft 375 kts 228°
2026-05-08 00:36 34.52470 -78.94649 35887 ft 375 kts 229°
2026-05-08 00:36 34.48288 -78.98498 35891 ft 380 kts 229°
2026-05-08 00:37 34.44027 -79.02408 35895 ft 390 kts 228°
2026-05-08 00:38 34.37292 -79.08218 35891 ft 396 kts 226°
2026-05-08 00:38 34.32819 -79.12050 35877 ft 396 kts 226°
2026-05-08 00:39 34.28313 -79.15905 35880 ft 395 kts 226°
2026-05-08 00:39 34.23926 -79.19909 35885 ft 392 kts 230°
2026-05-08 00:40 34.19684 -79.24123 35863 ft 393 kts 230°
2026-05-08 00:40 34.15425 -79.28320 35862 ft 392 kts 229°
2026-05-08 00:41 34.11187 -79.32489 35858 ft 390 kts 230°
2026-05-08 00:41 34.06960 -79.36642 35857 ft 392 kts 230°
2026-05-08 00:42 34.02699 -79.40823 35857 ft 391 kts 229°
2026-05-08 00:42 33.98326 -79.45108 35862 ft 395 kts 229°
2026-05-08 00:43 33.94050 -79.49291 35860 ft 394 kts 230°
2026-05-08 00:43 33.89813 -79.53430 35858 ft 390 kts 229°
2026-05-08 00:44 33.85554 -79.57547 35860 ft 394 kts 228°
2026-05-08 00:44 33.81217 -79.61592 35858 ft 396 kts 229°
2026-05-08 00:45 33.76841 -79.65674 35869 ft 395 kts 228°
2026-05-08 00:45 33.72476 -79.69740 35881 ft 395 kts 228°
2026-05-08 00:46 33.67976 -79.73930 35886 ft 399 kts 228°
2026-05-08 00:46 33.63579 -79.78014 35888 ft 398 kts 228°
2026-05-08 00:47 33.59203 -79.82075 35887 ft 395 kts 228°
2026-05-08 00:47 33.54845 -79.86114 35886 ft 397 kts 228°
2026-05-08 00:48 33.50475 -79.90159 35888 ft 397 kts 228°
2026-05-08 00:48 33.46060 -79.94240 35887 ft 396 kts 227°
2026-05-08 00:49 33.41643 -79.98319 35884 ft 399 kts 227°
2026-05-08 00:49 33.37262 -80.02358 35889 ft 398 kts 227°
2026-05-08 00:50 33.32820 -80.06446 35888 ft 398 kts 227°
2026-05-08 00:50 33.28423 -80.10490 35886 ft 399 kts 228°
2026-05-08 00:51 33.23991 -80.14560 35891 ft 399 kts 228°
2026-05-08 00:51 33.19562 -80.18621 35890 ft 398 kts 228°
2026-05-08 00:52 33.15154 -80.22659 35888 ft 400 kts 228°
2026-05-08 00:52 33.10724 -80.26712 35886 ft 399 kts 227°
2026-05-08 00:53 33.06285 -80.30767 35885 ft 401 kts 227°
2026-05-08 00:53 33.01829 -80.34832 35882 ft 399 kts 227°
2026-05-08 00:54 32.97411 -80.38856 35886 ft 399 kts 227°
2026-05-08 00:54 32.93021 -80.42852 35886 ft 401 kts 227°
2026-05-08 00:55 32.88580 -80.46890 35893 ft 403 kts 227°
2026-05-08 00:55 32.84116 -80.50940 35895 ft 401 kts 227°
2026-05-08 00:56 32.79662 -80.54977 35897 ft 402 kts 227°
2026-05-08 00:56 32.75204 -80.59013 35898 ft 402 kts 227°
2026-05-08 00:57 32.70763 -80.63032 35895 ft 402 kts 227°
2026-05-08 00:57 32.66340 -80.67160 35922 ft 405 kts 227°
2026-05-08 00:58 32.61898 -80.71294 35918 ft 403 kts 227°
2026-05-08 00:58 32.57480 -80.75401 35921 ft 403 kts 227°
2026-05-08 00:59 32.53044 -80.79519 35921 ft 406 kts 227°
2026-05-08 00:59 32.48611 -80.83628 35919 ft 405 kts 227°
2026-05-08 01:00 32.44171 -80.87739 35919 ft 404 kts 227°
2026-05-08 01:00 32.39743 -80.91834 35921 ft 405 kts 227°
2026-05-08 01:01 32.35316 -80.95922 35920 ft 405 kts 227°
2026-05-08 01:01 32.30884 -81.00010 35920 ft 406 kts 227°
2026-05-08 01:02 32.26155 -81.03825 35931 ft 417 kts 219°
2026-05-08 01:02 32.21108 -81.07195 35925 ft 418 kts 220°
2026-05-08 01:03 32.16077 -81.10561 35919 ft 414 kts 220°
2026-05-08 01:03 32.13633 -81.12189 35906 ft 395 kts 220°
2026-05-08 01:03 32.11291 -81.13755 35909 ft 383 kts 220°
2026-05-08 01:04 32.06638 -81.16868 35920 ft 388 kts 220°
2026-05-08 01:04 32.01916 -81.20017 35919 ft 391 kts 220°
2026-05-08 01:05 31.97177 -81.23186 35914 ft 387 kts 222°
2026-05-08 01:05 31.95074 -81.25050 35925 ft 376 kts 231°
2026-05-08 01:05 31.93128 -81.27117 35923 ft 377 kts 231°
2026-05-08 01:06 31.89227 -81.31244 35924 ft 377 kts 231°
2026-05-08 01:06 31.85304 -81.35387 35924 ft 379 kts 231°
2026-05-08 01:07 31.81377 -81.39527 35927 ft 378 kts 230°
2026-05-08 01:07 31.77444 -81.43669 35924 ft 378 kts 231°
2026-05-08 01:08 31.73539 -81.47778 35930 ft 380 kts 230°
2026-05-08 01:08 31.69611 -81.51904 35930 ft 380 kts 230°
2026-05-08 01:09 31.65670 -81.56039 35931 ft 380 kts 230°
2026-05-08 01:09 31.61726 -81.60174 35930 ft 381 kts 230°
2026-05-08 01:10 31.57768 -81.64317 35932 ft 381 kts 230°
2026-05-08 01:10 31.53787 -81.68481 35953 ft 385 kts 230°
2026-05-08 01:11 31.49801 -81.72642 35956 ft 382 kts 230°
2026-05-08 01:11 31.45828 -81.76788 35957 ft 382 kts 230°
2026-05-08 01:12 31.41838 -81.80940 35953 ft 384 kts 228°
2026-05-08 01:12 31.37250 -81.84381 35957 ft 395 kts 219°
2026-05-08 01:13 31.32473 -81.87624 35952 ft 395 kts 219°
2026-05-08 01:13 31.27693 -81.90869 35949 ft 397 kts 219°
2026-05-08 01:14 31.22902 -81.94118 35949 ft 395 kts 219°
2026-05-08 01:14 31.18122 -81.97356 35945 ft 397 kts 219°
2026-05-08 01:15 31.13309 -82.00613 35947 ft 399 kts 219°
2026-05-08 01:15 31.08495 -82.03866 35946 ft 398 kts 219°
2026-05-08 01:16 31.03679 -82.07117 35949 ft 399 kts 219°
2026-05-08 01:16 30.98822 -82.10391 35949 ft 399 kts 219°
2026-05-08 01:17 30.94022 -82.13623 35949 ft 397 kts 219°
2026-05-08 01:17 30.89169 -82.16888 35953 ft 399 kts 219°
2026-05-08 01:18 30.84328 -82.20141 35959 ft 403 kts 219°
2026-05-08 01:18 30.79381 -82.23460 35966 ft 410 kts 219°
2026-05-08 01:19 30.74389 -82.26806 35968 ft 413 kts 218°
2026-05-08 01:19 30.69387 -82.30139 35960 ft 414 kts 217°
2026-05-08 01:19 30.66668 -82.31470 35975 ft 427 kts 207°
2026-05-08 01:20 30.63697 -82.32276 35971 ft 438 kts 198°
2026-05-08 01:20 30.57516 -82.32943 35966 ft 444 kts 195°
2026-05-08 01:21 30.51377 -82.33692 35963 ft 444 kts 196°
2026-05-08 01:21 30.45177 -82.34463 35963 ft 444 kts 196°
2026-05-08 01:22 30.38990 -82.35235 35969 ft 443 kts 196°
2026-05-08 01:22 30.32783 -82.36006 35968 ft 444 kts 196°
2026-05-08 01:23 30.26603 -82.36774 35971 ft 444 kts 195°
2026-05-08 01:23 30.20443 -82.37540 35974 ft 445 kts 195°
2026-05-08 01:23 30.17317 -82.37890 35785 ft 453 kts 192°
2026-05-08 01:24 30.14134 -82.37814 35302 ft 459 kts 186°
2026-05-08 01:24 30.10935 -82.37616 34776 ft 459 kts 186°
2026-05-08 01:24 30.07732 -82.37432 34272 ft 459 kts 187°
2026-05-08 01:24 30.04528 -82.37253 33764 ft 461 kts 186°
2026-05-08 01:25 30.01278 -82.37071 33249 ft 462 kts 186°
2026-05-08 01:25 29.98060 -82.36890 32752 ft 453 kts 186°
2026-05-08 01:25 29.94971 -82.36718 32266 ft 446 kts 187°
2026-05-08 01:25 29.91859 -82.36546 31779 ft 446 kts 186°
2026-05-08 01:26 29.88736 -82.36373 31283 ft 448 kts 186°
2026-05-08 01:26 29.85612 -82.36200 30788 ft 452 kts 186°
2026-05-08 01:26 29.82443 -82.36024 30282 ft 453 kts 186°
2026-05-08 01:26 29.79333 -82.35850 29784 ft 449 kts 186°
2026-05-08 01:27 29.76212 -82.35677 29287 ft 444 kts 185°
2026-05-08 01:27 29.73129 -82.35506 28801 ft 443 kts 185°
2026-05-08 01:27 29.70054 -82.35335 28313 ft 439 kts 185°
2026-05-08 01:27 29.67024 -82.35167 27830 ft 436 kts 185°
2026-05-08 01:28 29.64024 -82.35001 27349 ft 433 kts 185°
2026-05-08 01:28 29.61027 -82.34835 26872 ft 429 kts 185°
2026-05-08 01:28 29.58068 -82.34672 26403 ft 425 kts 185°
2026-05-08 01:28 29.55104 -82.34508 25931 ft 422 kts 185°
2026-05-08 01:29 29.52172 -82.34346 25463 ft 418 kts 185°
2026-05-08 01:29 29.49294 -82.34188 25008 ft 416 kts 185°
2026-05-08 01:29 29.46410 -82.34028 24544 ft 412 kts 185°
2026-05-08 01:29 29.43544 -82.33871 24089 ft 409 kts 185°
2026-05-08 01:30 29.40730 -82.33715 23644 ft 406 kts 185°
2026-05-08 01:30 29.37904 -82.33406 23205 ft 406 kts 182°
2026-05-08 01:30 29.35099 -82.33066 22760 ft 403 kts 181°
2026-05-08 01:30 29.32312 -82.32732 22321 ft 402 kts 181°
2026-05-08 01:31 29.29541 -82.32400 21874 ft 400 kts 181°
2026-05-08 01:31 29.26779 -82.32071 21436 ft 398 kts 181°
2026-05-08 01:31 29.24047 -82.31745 20995 ft 396 kts 181°
2026-05-08 01:31 29.21314 -82.31419 20558 ft 394 kts 181°
2026-05-08 01:32 29.18596 -82.31095 20134 ft 389 kts 181°
2026-05-08 01:32 29.15917 -82.30776 19695 ft 387 kts 181°
2026-05-08 01:32 29.13231 -82.30456 19268 ft 385 kts 181°
2026-05-08 01:32 29.10582 -82.30141 18815 ft 383 kts 180°
2026-05-08 01:33 29.07932 -82.29826 18395 ft 380 kts 180°
2026-05-08 01:33 29.05313 -82.29515 17970 ft 377 kts 180°
2026-05-08 01:33 29.02686 -82.29203 17533 ft 375 kts 180°
2026-05-08 01:33 29.00097 -82.28895 17121 ft 372 kts 180°
2026-05-08 01:34 28.97555 -82.28594 16728 ft 370 kts 180°
2026-05-08 01:34 28.94977 -82.28288 16325 ft 367 kts 180°
2026-05-08 01:34 28.92460 -82.27989 15929 ft 365 kts 180°
2026-05-08 01:34 28.89950 -82.27692 15504 ft 362 kts 180°
2026-05-08 01:35 28.87436 -82.27394 15095 ft 359 kts 179°
2026-05-08 01:35 28.84941 -82.27099 14706 ft 356 kts 179°
2026-05-08 01:35 28.82492 -82.26809 14319 ft 354 kts 179°
2026-05-08 01:35 28.80070 -82.26523 13933 ft 352 kts 179°
2026-05-08 01:36 28.77614 -82.26232 13538 ft 349 kts 179°
2026-05-08 01:36 28.75219 -82.25949 13156 ft 347 kts 179°
2026-05-08 01:36 28.72799 -82.25787 12888 ft 340 kts 184°
2026-05-08 01:36 28.70424 -82.25748 12907 ft 341 kts 184°
2026-05-08 01:37 28.68040 -82.25712 12907 ft 343 kts 184°
2026-05-08 01:37 28.65658 -82.25674 12910 ft 343 kts 184°
2026-05-08 01:37 28.63230 -82.25635 12784 ft 344 kts 183°
2026-05-08 01:37 28.60860 -82.25590 12446 ft 344 kts 183°
2026-05-08 01:38 28.58467 -82.25544 12075 ft 342 kts 183°
2026-05-08 01:38 28.56071 -82.25498 11683 ft 340 kts 183°
2026-05-08 01:38 28.53728 -82.25453 11302 ft 333 kts 182°
2026-05-08 01:38 28.51432 -82.25417 10943 ft 325 kts 183°
2026-05-08 01:39 28.49190 -82.25386 10589 ft 317 kts 183°
2026-05-08 01:39 28.47005 -82.25358 10247 ft 310 kts 182°
2026-05-08 01:39 28.44875 -82.25330 9901 ft 303 kts 182°
2026-05-08 01:39 28.42788 -82.25302 9562 ft 297 kts 182°
2026-05-08 01:40 28.40713 -82.25275 9250 ft 296 kts 182°
2026-05-08 01:40 28.38648 -82.25249 8931 ft 296 kts 182°
2026-05-08 01:40 28.36613 -82.25431 8597 ft 290 kts 202°
2026-05-08 01:40 28.34895 -82.26595 8300 ft 285 kts 221°
2026-05-08 01:41 28.33351 -82.28026 7957 ft 285 kts 222°
2026-05-08 01:41 28.31840 -82.29449 7632 ft 283 kts 222°
2026-05-08 01:41 28.30438 -82.31014 7307 ft 278 kts 242°
2026-05-08 01:41 28.29854 -82.33040 7025 ft 269 kts 263°
2026-05-08 01:42 28.29584 -82.35125 6701 ft 263 kts 263°
2026-05-08 01:42 28.29337 -82.37141 6406 ft 257 kts 264°
2026-05-08 01:42 28.29099 -82.39133 6117 ft 252 kts 264°
2026-05-08 01:42 28.28872 -82.41054 6358 ft 240 kts 264°
2026-05-08 01:43 28.28655 -82.42874 6546 ft 227 kts 264°
2026-05-08 01:43 28.28431 -82.44371 6356 ft 224 kts 250°
2026-05-08 01:44 28.28261 -82.44807 6245 ft 225 kts 242°
2026-05-08 01:44 28.25363 -82.49062 5086 ft 229 kts 234°
2026-05-08 01:44 28.24221 -82.50289 4754 ft 231 kts 211°
2026-05-08 01:44 28.22754 -82.51140 4407 ft 230 kts 212°
2026-05-08 01:45 28.21307 -82.51992 4077 ft 230 kts 209°
2026-05-08 01:45 28.19751 -82.52535 3768 ft 236 kts 180°
2026-05-08 01:45 28.18122 -82.52347 3598 ft 230 kts 178°
2026-05-08 01:45 28.16493 -82.52281 3354 ft 229 kts 182°
2026-05-08 01:46 28.10278 -82.52363 2193 ft 225 kts 188°
2026-05-08 01:46 28.08685 -82.52474 1909 ft 221 kts 185°
2026-05-08 01:46 28.07148 -82.52533 1636 ft 203 kts 185°
2026-05-08 01:46 28.05824 -82.52576 1407 ft 179 kts 186°
2026-05-08 01:47 28.04616 -82.52620 1149 ft 161 kts 185°
2026-05-08 01:47 28.03527 -82.52657 954 ft 151 kts 185°
2026-05-08 01:47 28.02454 -82.52695 752 ft 146 kts 185°
2026-05-08 01:48 28.00424 -82.52765 396 ft 144 kts 185°
2026-05-08 01:48 27.99407 -82.52799 205 ft 141 kts 184°
2026-05-08 01:48 27.98416 -82.52834 28 ft 128 kts 184°
2026-05-08 01:48 27.97714 -82.52858 25 ft 62 kts 183°
2026-05-08 01:49 27.97536 -82.52924 24 ft 14 kts 270°
2026-05-08 01:49 27.97538 -82.53038 24 ft 13 kts 289°
2026-05-08 01:49 27.97618 -82.53065 24 ft 11 kts
2026-05-08 01:49 27.97702 -82.53061 24 ft 12 kts
2026-05-08 01:50 27.97799 -82.53060 24 ft 13 kts 360°
2026-05-08 01:50 27.97912 -82.53059 25 ft 16 kts
2026-05-08 01:50 27.98030 -82.53056 25 ft 16 kts
2026-05-08 01:50 27.98150 -82.53052 25 ft 16 kts
2026-05-08 01:51 27.98271 -82.53046 25 ft 16 kts
2026-05-08 01:51 27.98383 -82.53067 25 ft 16 kts 322°
2026-05-08 01:51 27.98471 -82.53155 25 ft 16 kts 308°
2026-05-08 01:51 27.98490 -82.53287 25 ft 16 kts 272°
2026-05-08 01:52 27.98419 -82.53372 24 ft 15 kts 184°
2026-05-08 01:52 27.98336 -82.53333 24 ft 9 kts 97°
2026-05-08 01:52 27.98335 -82.53308 24 ft 2 kts 93°
2026-05-08 01:52 27.98335 -82.53307 24 ft 0 kts 93°